This demonstration page uses our WeatherBlox Daily Observations layout. Learn more.

Left ArrowRight Arrow

Hourly Observations for March 24, 2020

Temp ( °F °C ) Dew Point ( °F °C ) Humidity (%) Winds ( mph kmh ) Pressure ( in mb ) Visibility ( mi km ) Precip ( " mm )
12:56 am 00:56 Clear 42 5.6 41 5 96 96 S 13 20 29.94 1014 10 16 0.00 0.00
1:56 am 01:56 Mostly Clear 43 6.1 42 5.6 97 97 S 12 19 29.93 1014 10 16 0.00 0.00
2:51 am 02:51 Mostly Cloudy 43 6 43 6 100 100 S 8 13 29.93 1013 7 11 0.00 0.00
2:56 am 02:56 Mostly Cloudy with Mist and Fog 43 6.1 42 5.6 97 97 S 9 15 29.91 1013 6 10 0.00 0.00
3:15 am 03:15 Cloudy with Mist and Fog 43 6 43 6 100 100 S 8 13 29.92 1013 3 4 0.00 0.00
3:23 am 03:23 Cloudy with Mist and Fog 43 6 43 6 100 100 S 7 11 29.92 1013 3 5 0.00 0.00
3:56 am 03:56 Cloudy with Mist and Fog 45 7.2 44 6.7 97 97 S 5 7 29.88 1012 6 10 0.00 0.00
4:22 am 04:22 Cloudy with Mist and Fog 45 7 45 7 100 100 SSE 6 9 29.89 1012 6 10 0.00 0.00
4:45 am 04:45 Cloudy with Mist and Fog 45 7 45 7 100 100 SE 6 9 29.89 1012 4 6 0.00 0.00
4:49 am 04:49 Cloudy with Mist and Fog 45 7 43 6 93 93 ESE 5 7 29.89 1012 2 2 0.00 0.00
4:56 am 04:56 Cloudy with Mist and Fog 43 6.1 42 5.6 97 97 SE 7 11 29.87 1012 1 1 0.00 0.00
5:08 am 05:08 Cloudy with Fog 43 6 43 6 100 100 SE 9 15 29.90 1012 1 1 0.00 0.00
5:54 am 05:54 Cloudy with Fog 43 6 43 6 100 100 S 7 11 29.91 1013 0 0 0.00 0.00
5:56 am 05:56 Cloudy with Fog 43 6.1 42 5.6 97 97 S 6 9 29.88 1012 0 0 0.00 0.00
6:56 am 06:56 Cloudy with Fog 42 5.6 42 5.6 100 100 SE 6 9 29.90 1012 0 0 0.00 0.00
7:56 am 07:56 Cloudy with Fog 42 5.6 42 5.6 100 100 ESE 5 7 29.92 1013 0 0 0.00 0.00
8:56 am 08:56 Cloudy with Fog 43 6.1 43 6.1 100 100 SE 9 15 29.91 1013 0 0 0.00 0.00
9:32 am 09:32 Cloudy with Fog 45 7 45 7 100 100 SE 8 13 29.94 1014 1 1 0.00 0.00
9:43 am 09:43 Cloudy with Mist and Fog 45 7 45 7 100 100 SSE 9 15 29.94 1014 1 2 0.00 0.00
9:56 am 09:56 Cloudy with Mist and Fog 45 7.2 44 6.7 97 97 SSE 10 17 29.94 1014 2 3 0.00 0.00
10:07 am 10:07 Cloudy with Mist and Fog 45 7 45 7 100 100 SSE 9 15 29.94 1014 4 6 0.00 0.00
10:56 am 10:56 Cloudy 47 8.3 47 8.3 100 100 S 8 13 29.93 1014 9 14 0.00 0.00
11:04 am 11:04 Cloudy 48 9 46 8 94 94 S 9 15 29.93 1014 10 16 0.00 0.00
11:44 am 11:44 Cloudy 52 11 46 8 82 82 S 9 15 29.91 1013 10 16 0.00 0.00
11:56 am 11:56 Cloudy 53 11.7 46 7.8 77 77 SW 10 17 29.91 1013 10 16 0.00 0.00
12:21 pm 12:21 Mostly Cloudy 55 13 46 8 72 72 SSW 12 19 29.88 1012 10 16 0.00 0.00
12:37 pm 12:37 Partly Cloudy 57 14 46 8 67 67 SSW 14 22 29.86 1011 10 16 0.00 0.00
12:56 pm 12:56 Sunny 58 14.4 46 7.8 65 65 S 10 17 29.89 1012 10 16 0.00 0.00
1:56 pm 13:56 Sunny 62 16.7 44 6.7 52 52 S 15 24 29.84 1011 10 16 0.00 0.00
2:56 pm 14:56 Sunny 64 17.8 43 6.1 46 46 SSW 13 20 29.82 1010 10 16 0.00 0.00
3:56 pm 15:56 Sunny 66 18.9 41 5 40 40 VRB 7 11 29.80 1009 10 16 0.00 0.00
4:56 pm 16:56 Sunny 67 19.4 40 4.4 37 37 SSW 9 15 29.79 1009 10 16 0.00 0.00
5:56 pm 17:56 Sunny 68 20 39 3.9 35 35 S 6 9 29.77 1008 10 16 0.00 0.00
6:56 pm 18:56 Sunny 66 18.9 41 5 40 40 SSE 10 17 29.78 1008 10 16 0.00 0.00
7:56 pm 19:56 Clear 57 13.9 38 3.3 49 49 SE 12 19 29.80 1009 10 16 0.00 0.00
8:56 pm 20:56 Clear 54 12.2 46 7.8 75 75 S 10 17 29.81 1010 10 16 0.00 0.00
9:56 pm 21:56 Clear 50 10 46 7.8 86 86 S 13 20 29.83 1010 10 16 0.00 0.00
10:56 pm 22:56 Clear 50 10 46 7.8 86 86 S 13 20 29.83 1010 10 16 0.00 0.00
11:56 pm 23:56 Clear 48 8.9 45 7.2 89 89 S 13 20 29.81 1009 10 16 0.00 0.00

Powered by AerisWeather